Location: Unspecified
(43.3830°N, 0.0000°E)
Time: 07:52:56
(UTC+00:00)

Explorer 7 - Pass Details

Date: 01 July 2019
Orbit: 485 x 680 km, 50.3° (Epoch: 22 July)

Event Time Altitude Azimuth Distance (km) Brightness Sun altitude
Rises 12:47:05 0° 286° (WNW) 2,913 10.6 67.8°
Reaches altitude 10° 12:50:16 10° 263° (W) 2,038 10.1 67.6°
Maximum altitude 12:52:52 15° 229° (SW) 1,758 10.0 67.3°
Drops below altitude 10° 12:55:32 10° 196° (SSW) 2,078 10.3 67.1°
Sets 12:58:50 0° 173° (S) 3,007 10.8 66.8°
